Tracking 31027 objects as of 19-Jul-2025
HD Live streaming from Space Station
objects crossing your sky now

APRIZESAT 5

Track APRIZESAT 5 now!
10-day predictions
APRIZESAT 5 is classified as:


NORAD ID: 37792
Int'l Code: 2011-044E
Perigee: 599.1 km
Apogee: 673.7 km
Inclination: 98.2 °
Period: 97.3 minutes
Semi major axis: 7007 km
RCS: 0.107 m2 (medium)
Launch date: August 17, 2011
Source: United States (US)
Launch site: Orenburg, Russia (OREN)

Uplink (MHz):
Downlink (MHz):
Beacon (MHz):
Mode:
Call sign:
Status: Unknown

Your satellite tracking list
LANDSAT 5
Track 1 satellite(s)




NASA's NSSDC Master Catalog

Two Line Element Set (TLE):
1 37792U 11044E   25199.69561700  .00000894  00000-0  12299-3 0  9995
2 37792  98.2294 118.9488 0053242 357.7195   2.3765 14.80032237749582
Source of the keplerian elements: AFSPC